Regional Weather Roundup
Issued by NWS Newport/Morehead, NC

Current Version | Previous Version | Text Only | Print | Product List | Glossary On
Versions: 1 2 3 4 5 6 7 8 9 10 11 12 13 14 15 16 17 18 19 20 21 22 23 24 25 26 27 28 29 30 31 32 33 34 35 36 37 38 39 40 41 42 43 44 45 46 47 48 49 50
000 ASUS42 KMHX 222010 RWRMHX WEATHER ROUNDUP FOR EASTERN NORTH CAROLINA NATIONAL WEATHER SERVICE NEWPORT/MOREHEAD CITY NC 400 PM EDT FRI AUG 22 2014 NOTE: "FAIR" INDICATES FEW OR NO CLOUDS BELOW 12,000 FEET WITH NO SIGNIFICANT WEATHER AND/OR OBSTRUCTIONS TO VISIBILITY NCZ015>017-031-032-045>047-102-103-222100- NORTH COAST CITY SKY/WX TMP DP RH WIND PRES REMARKS EDENTON CLOUDY 86 72 64 NW7 29.94F ELIZABETH CITY CLOUDY 83 70 64 NW9 29.93F KITTY HAWK MOCLDY 83 71 66 W8 29.92S MANTEO MOSUNNY 84 70 61 NW8 29.93S $$ NCZ045>047-081-094-103-104-222100- CENTRAL COAST CITY SKY/WX TMP DP RH WIND PRES REMARKS FRISCO MOSUNNY 87 74 64 NW8 29.93F SWANQUARTER N/A 90 N/A N/A W13 29.88F $$ NCZ095-097-098-100-101-222100- SOUTHERN COAST CITY SKY/WX TMP DP RH WIND PRES REMARKS BEAUFORT CLOUDY 90 76 63 SW9 29.94F HX 101 CEDAR ISLAND N/A 90 N/A N/A NW12 29.97S JACKSONVILLE MOSUNNY 94 70 45 NW9 29.94F HX 100 NEWPORT NOT AVBL PINEY ISLAND PTCLDY 93 74 53 NW12 29.93F HX 103 WILMINGTON PTSUNNY 92 74 55 NE8 29.95F HX 101 $$ NCZ011>013-027>030-043-044-078>080-089-090>093-098-222100- COASTAL PLAIN CITY SKY/WX TMP DP RH WIND PRES REMARKS AHOSKIE CLOUDY 83 72 69 NW3 29.95F CLINTON MOSUNNY 93 75 55 NE5 29.96F HX 105 ELIZABETHTOWN CLOUDY 94 67 41 CALM 29.95F GOLDSBORO MOSUNNY 91 76 61 VRB6 29.94F HX 104 GREENVILLE MOSUNNY 90 73 58 N7 29.96F HAVELOCK MOSUNNY 92 70 48 NW14 29.94F KENANSVILLE MOSUNNY 92 69 46 W6 29.96F KINSTON MOSUNNY 91 72 52 NW5 29.96F NEW BERN MOSUNNY 93 72 50 NW8 29.95F HX 101 RICHLANDS MOSUNNY 93 70 46 NW6 29.95F ROANOKE RAPIDS NOT AVBL ROCKY MOUNT PTSUNNY 89 70 53 NW9 29.96F WASHINGTON MOSUNNY 89 73 58 NW7 29.94F WHITEVILLE SUNNY 93 71 48 CALM 29.95F HX 100 $$ AMZ130-135-150-152-154-156-158-170-250-252-270-ANZ085-086-088-633-658-670-222100- MARINE OBSERVATIONS STATION/POSITION TIME TEMP WIND PRES WAVE SWELL AIR SEA DIR/SP/G HT/PER HT/PER (UTC) (F) (DEG/KT/KT) (MB) (FT/S) (FT/S) CHESAPEAKE LIGHT 1900 78 340/ 12/ 12 1014.6 BUOY 44014 2000 78 79 340/ 10/ 10 1012.6 2/ 7 2/ 7 DUCK 2000 80 80 40/ 9/ 10 1012.8 2E DUCK 2000 N/A 2/ 7 OREGON INLET 2000 85 84 310/ 10/ 13 1013.3 BUOY 44095 2000 81 N/A 2/ 8 20E OREGON INLET NOT AVBL HATTERAS CG 2000 85 84 290/ 11/ 13 1014.0 DIAMOND BUOY 2000 82 270/ 10/ 12 1013.4 2/ 8 2/ 8 CAPE LOOKOUT 1900 85 230/ 11/ 12 1014.2 BEAUFORT LAB 2000 89 83 240/ 6/ 10 1013.8 30 SE NEW RIVER 2000 84 84 240/ 10/ 10 1013.8 2/ 9 2/ 9 5 SE WRIGHTSVILL 2000 82 84 240/ 4/ 6 N/A BUOY 41002 1925 83 83 250/ 14/ 16 1016.0 2/ 9 2/ 9 BUOY 41004 2000 86 86 200/ 10/ 12 1014.6 1/ 9 2/ 9 $$

USA.gov is the U.S. government's official web portal to all federal, state and local government web resources and services.